Location: Makanda
(37.6176°N, 89.2090°W)
Time: 11:54:49
(UTC+00:00)

Cosmos 1190 Rocket - Pass Details

Date: 23 September 2019
Orbit: 757 x 780 km, 74.1° (Epoch: 14 October)

Event Time Altitude Azimuth Distance (km) Brightness Sun altitude
Rises 01:17:43 0° 342° (NNW) 3,260 7.7 -17.2°
Reaches altitude 10° 01:20:07 10° 343° (NNW) 2,326 6.9 -17.7°
Maximum altitude 01:25:25 85° 71° (ENE) 778 3.9 -18.7°
Enters shadow 01:29:10 19° 160° (SSE) 1,739 5.5 -19.4°
